Tracking 25710 objects as of 4-Jul-2022
HD Live streaming from Space Station
objects crossing your sky now

STARLINK-2279

Track STARLINK-2279 now!
10-day predictions
STARLINK-2279 is classified as:


NORAD ID: 47991
Int'l Code: 2021-024Q
Perigee: 553.5 km
Apogee: 555.1 km
Inclination: 53.1 °
Period: 95.6 minutes
Semi major axis: 6925 km
RCS: Unknown
Launch date: March 24, 2021
Source: United States (US)
Launch site: AIR FORCE EASTERN TEST RANGE (AFETR)
aabbcc
Your satellite tracking list
Your tracking list is empty




NASA's NSSDC Master Catalog

Two Line Element Set (TLE):
1 47991U 21024Q   22185.37883465 -.00004839  00000-0 -30599-3 0  9996
2 47991  53.0553 176.4830 0001164  75.6145 284.4973 15.06425638 72985
Source of the keplerian elements: AFSPC